Hutchinson, KS

2:28 AM CDT on June 25, 2017 (GMT -0500)
Hutchinson Municipal

Weather History for KHUT - January, 2012

Change the Weather History Date:

Thursday, January 12, 2012

  Actual Average Record
Temperature  
Mean Temperature 23 °F -  
Max Temperature 30 °F 40 °F 64 °F (2014)
Min Temperature 16 °F 17 °F -2 °F (2011)
Degree Days  
Heating Degree Days 42    
Moisture  
Dew Point -1 °F    
Average Humidity 40    
Maximum Humidity 60    
Minimum Humidity 19    
Precipitation  
Precipitation 0.00 in - - ()
Sea Level Pressure  
Sea Level Pressure 30.12 in    
Wind  
Wind Speed 17 mph (NW)    
Max Wind Speed 25 mph    
Max Gust Speed 38 mph    
Visibility 10 miles    
Events      
Averages and records for this station are not official NWS values.
T = Trace of Precipitation, MM = Missing Value Source: NWS Daily Summary

Daily Weather History Graph

Daily Weather History Graph

Search for Another Location

Airport or City:

Trip Planner

Search our weather history database for the weather conditions in past years. The results will help you decide how hot, cold, wet, or windy it might be!

Date:

Astronomy

Jan. 12, 2012 Rise Set
Actual Time 7:47 AM CST 5:32 PM CST
Civil Twilight 7:18 AM CST 6:01 PM CST
Nautical Twilight 6:45 AM CST 6:33 PM CST
Astronomical Twilight 6:14 AM CST 7:05 PM CST
Moon 9:34 PM CST (1/12) 9:35 AM CST (1/12)
Length of Visible Light 10h 42m
Length of Day
9h 44m
Waning Gibbous, 87% of the Moon is Illuminated
Jan 12
Waning Gibbous
Jan 16
Last Quarter
Jan 23
New
Jan 30
First Quarter
Feb 7
Full

Hourly Weather History & Observations

Time (CST) Temp. Windchill Dew Point Humidity Pressure Visibility Wind Dir Wind Speed Gust Speed Precip Events Conditions
12:52 AM 19.9 °F 2.5 °F 3.9 °F 50% 30.12 in 10.0 mi NNW 25.3 mph 38.0 mph N/A   Clear
1:52 AM 19.0 °F 4.5 °F 3.0 °F 50% 30.14 in 10.0 mi NNW 16.1 mph 26.5 mph N/A   Clear
2:52 AM 19.0 °F 3.2 °F 1.9 °F 47% 30.14 in 10.0 mi NNW 19.6 mph 29.9 mph N/A   Clear
3:52 AM 19.0 °F 6.1 °F 1.9 °F 47% 30.12 in 10.0 mi NNW 12.7 mph - N/A   Scattered Clouds
4:52 AM 19.0 °F 6.8 °F 3.0 °F 50% 30.13 in 10.0 mi NW 11.5 mph - N/A   Overcast
5:52 AM 18.0 °F 6.1 °F 6.1 °F 60% 30.12 in 10.0 mi NW 10.4 mph - N/A   Scattered Clouds
6:52 AM 19.0 °F 3.2 °F 5.0 °F 54% 30.12 in 10.0 mi NNW 19.6 mph 27.6 mph N/A   Partly Cloudy
7:52 AM 18.0 °F 2.6 °F 5.0 °F 57% 30.12 in 10.0 mi NW 17.3 mph 24.2 mph N/A   Clear
8:52 AM 19.4 °F 2.5 °F 1.4 °F 46% 30.09 in 10.0 mi NW 23.0 mph 28.8 mph N/A   Clear
9:52 AM 21.9 °F 5.5 °F -0.0 °F 38% 30.14 in 10.0 mi NW 24.2 mph 32.2 mph N/A   Clear
10:52 AM 24.1 °F 8.0 °F -0.0 °F 35% 30.14 in 10.0 mi NW 25.3 mph 33.4 mph N/A   Clear
11:52 AM 27.0 °F 12.2 °F -0.9 °F 30% 30.12 in 10.0 mi NW 24.2 mph 31.1 mph N/A   Clear
12:52 PM 28.9 °F 14.8 °F -4.0 °F 24% 30.10 in 10.0 mi NW 24.2 mph 29.9 mph N/A   Clear
1:52 PM 30.0 °F 17.9 °F -7.1 °F 20% 30.09 in 10.0 mi NW 18.4 mph 27.6 mph N/A   Clear
2:52 PM 30.9 °F 18.7 °F -7.1 °F 19% 30.08 in 10.0 mi NNW 19.6 mph - N/A   Clear
3:52 PM 30.0 °F 17.5 °F -7.1 °F 20% 30.09 in 10.0 mi NW 19.6 mph 26.5 mph N/A   Clear
4:52 PM 28.9 °F 18.2 °F -8.0 °F 20% 30.11 in 10.0 mi NW 13.8 mph - N/A   Clear
5:52 PM 24.1 °F 14.4 °F -7.1 °F 25% 30.11 in 10.0 mi NNW 9.2 mph - N/A   Clear
6:52 PM 21.9 °F 13.4 °F -5.1 °F 30% 30.13 in 10.0 mi WNW 6.9 mph - N/A   Clear
7:52 PM 17.6 °F 9.3 °F -2.2 °F 42% 30.09 in 10.0 mi WNW 5.8 mph - N/A   Clear
8:52 PM 16.0 °F 7.4 °F -0.0 °F 49% 30.14 in 10.0 mi NW 5.8 mph - N/A   Clear
9:52 PM 18.0 °F 9.8 °F 1.0 °F 48% 30.16 in 10.0 mi West 5.8 mph - N/A   Clear
10:52 PM 17.1 °F 10.0 °F 1.0 °F 50% 30.17 in 10.0 mi NNW 4.6 mph - N/A   Clear
11:52 PM 16.0 °F 7.4 °F 1.9 °F 54% 30.17 in 10.0 mi NW 5.8 mph - N/A   Clear